This demonstration page uses our WeatherBlox Daily Observations layout. Learn more.

41.55636, -103.73856

Hourly Observations for December 15, 2019

Temp ( °F °C ) Dew Point ( °F °C ) Humidity (%) Winds ( mph kmh ) Pressure ( in mb ) Visibility ( mi km ) Precip ( " mm )
2:58 am 02:58 Mostly Cloudy with Scattered Snow Showers 26 -3.3 26 -3.6 98 98 E 6 9 29.83 1010 3 4.82802 0 0
3:58 am 03:58 Cloudy 26 -3.2 26 -3.5 98 98 E 5 7 29.82 1010 10 16.0934 0 0
4:58 am 04:58 Mostly Cloudy with Mist and Fog 26 -3.1 26 -3.3 99 99 Calm 29.82 1010 2.25 3.621015 0 0
5:58 am 05:58 Mostly Cloudy with Freezing Fog 25 -3.8 25 -3.8 100 100 Calm 29.82 1010 0.5 0.80467 0 0
6:58 am 06:58 Mostly Cloudy with Light Snow Showers 26 -3.6 25 -3.8 99 99 WNW 5 7 29.82 1010 0.5 0.80467 0 0
7:58 am 07:58 Mostly Cloudy with Light Snow Showers 27 -2.9 26 -3.2 98 98 WNW 12 19 29.84 1010 10 16.0934 0 0
8:58 am 08:58 Mostly Cloudy with Light Snow Showers 26 -3.1 26 -3.5 97 97 NW 13 20 29.87 1012 10 16.0934 0 0
9:58 am 09:58 Cloudy with Light Snow 24 -4.5 23 -5 96 96 NW 10 17 29.92 1013 10 16.0934 0 0
10:58 am 10:58 Mostly Cloudy with Scattered Snow Showers 23 -4.9 22 -5.6 95 95 NW 15 24 29.93 1014 10 16.0934 0 0
11:58 am 11:58 Clear 20 -6.6 19 -7.3 95 95 WNW 9 15 29.96 1014 10 16.0934 0 0
12:58 pm 12:58 Clear 16 -9 14 -9.9 93 93 WSW 7 11 30 1016 10 16.0934 0 0
1:58 pm 13:58 Clear 16 -8.8 14 -9.8 93 93 WNW 8 13 29.99 1016 10 16.0934 0 0
2:58 pm 14:58 Sunny 13 -10.4 11 -11.7 90 90 WSW 8 13 30.02 1017 10 16.0934 0 0
3:58 pm 15:58 Sunny 17 -8.4 13 -10.5 85 85 SW 6 9 30.04 1017 10 16.0934 0 0
4:58 pm 16:58 Sunny 22 -5.4 16 -9 76 76 SSW 6 9 30.04 1017 10 16.0934 0 0
5:58 pm 17:58 Sunny 26 -3.6 16 -8.7 68 68 W 5 7 30.04 1017 10 16.0934 0.01 0.254
6:58 pm 18:58 Sunny 28 -2.4 17 -8.5 63 63 W 7 11 30.01 1016 10 16.0934 0 0
7:58 pm 19:58 Sunny 28 -2.3 18 -7.7 67 67 WNW 7 11 29.97 1015 10 16.0934 0 0
8:58 pm 20:58 Sunny 28 -2.4 20 -6.9 72 72 WNW 3 6 29.98 1015 10 16.0934 0 0
9:58 pm 21:58 Sunny 27 -2.9 19 -7 74 74 WSW 5 7 30.02 1017 10 16.0934 0 0
10:58 pm 22:58 Sunny 24 -4.4 17 -8.3 75 75 W 3 6 30.04 1017 10 16.0934 0 0
11:58 pm 23:58 Mostly Clear 19 -7 13 -10.6 76 76 SW 3 6 30.09 1019 10 16.0934 0 0

Powered by AerisWeather